Wind_Speed
12 12 12 11 11 8 7 5 2 1 2 2 2 1 1 1 2 3 4 5 6 7 5 5 6 6 7 7 7 8 8 10 11 11 9 10 11 10 9 7 7 9 10
9 10 11 10 10 9 6 7 5 3 2 2 2 1 2 3 4 4 5 5 5 7 7 5 6 6 7 7 8 9 8 9 11 10 10 7 9 10 11 10 11 10 10
8 8 7 7 9 10 8 6 6 5 4 5 5 4 2 1 3 5 5 6 7 8 8 8 8 8 8 9 10 10 10 11 11 11 11 12 8 9 10 12 12 10 9
6 6 6 7 8 9 9 8 7 7 6 7 6 6 5 4 4 5 3 4 4 7 8 9 9 8 9 11 12 13 15 15 14 14 13 14 14 13 10 10 13 11 10
4 3 8 7 6 9 10 9 7 6 5 6 6 6 4 3 2 4 6 4 1 3 6 9 11 12 13 12 15 17 19 20 19 21 19 18 16 15 15 10 10 14 15
12 4 13 9 6 8 10 11 9 8 7 7 6 5 3 2 2 2 2 1 1 4 8 10 10 12 14 16 18 20 22 22 22 21 21 21 21 18 18 17 13 15 13
10 14 15 11 8 12 10 9 9 9 8 7 6 5 4 4 4 6 7 8 9 11 13 16 16 17 18 18 19 22 24 25 26 24 22 23 22 22 21 19 17 17 13
10 12 11 14 19 16 13 15 15 12 11 9 9 10 9 6 6 9 11 13 15 16 19 20 21 22 22 22 25 26 29 29 25 25 27 25 23 22 22 19 17 17 16
4 9 11 10 11 23 24 19 16 16 4 18 16 18 14 9 7 10 13 11 12 15 19 22 23 22 20 21 23 25 29 33 33 34 25 26 24 22 22 21 18 17 15
10 5 10 17 13 10 19 26 22 25 18 14 22 26 22 19 13 14 15 13 12 14 14 13 12 13 15 15 17 24 30 34 38 34 28 22 20 20 22 21 18 17 17
13 11 6 5 12 10 9 10 13 8 5 9 13 25 22 23 18 19 17 19 17 10 11 13 13 11 12 13 14 20 19 19 9 10 15 18 18 17 20 21 20 18 19
10 11 6 4 4 8 7 10 13 9 2 3 6 13 17 26 20 16 19 23 24 15 12 14 14 11 13 13 15 16 15 13 5 9 9 4 8 14 18 20 22 21 21
7 10 11 5 1 3 6 9 11 10 6 6 4 11 12 15 17 19 24 24 28 21 17 16 16 14 13 13 13 17 16 13 11 6 7 10 12 17 21 23 23 23 23
5 9 10 11 8 3 6 6 6 7 12 10 11 14 16 18 21 23 25 25 27 26 23 21 19 18 17 15 15 15 16 15 13 15 16 17 22 26 24 24 20 20 25
3 5 9 10 11 9 3 8 13 13 13 15 15 16 22 24 25 26 28 29 27 25 24 25 22 22 22 20 18 15 16 14 13 16 22 24 22 16 18 21 22 24 24
7 2 4 6 9 9 9 4 2 11 13 17 18 20 22 23 24 24 24 25 27 27 28 27 25 23 24 23 22 20 18 16 18 18 18 17 18 18 20 24 26 28 28
13 6 1 3 6 8 8 7 2 5 10 14 16 19 23 24 25 24 24 24 25 25 26 26 27 27 26 26 25 25 23 21 19 21 22 22 24 24 25 27 27 22 25
17 10 5 1 3 6 6 6 5 6 7 10 12 16 20 22 22 22 22 24 24 25 25 26 28 27 26 27 28 27 26 26 23 25 26 26 28 29 26 25 20 11 14
17 14 10 8 7 7 10 12 12 13 15 15 17 19 20 20 23 25 26 26 27 27 26 26 26 26 27 28 28 29 28 29 26 26 27 31 30 30 28 25 20 14 18
21 17 13 12 13 13 13 13 16 19 20 21 21 23 24 25 28 29 31 32 32 32 33 33 32 31 31 31 31 33 33 32 32 31 30 32 34 34 32 29 24 21 23
22 16 13 13 14 16 15 15 16 19 22 24 25 24 25 28 31 34 37 38 39 39 39 39 40 40 40 40 40 40 40 40 39 38 36 36 37 38 38 37 33 28 27
24 18 13 12 16 16 15 16 18 22 25 25 27 30 32 34 37 39 41 44 45 46 47 48 47 47 47 47 47 48 49 48 49 47 46 45 44 43 42 42 40 36 35
17 13 11 10 13 14 17 19 23 27 28 30 31 33 35 36 37 37 35 33 34 36 37 39 40 41 41 42 43 45 48 50 53 53 53 54 55 53 49 46 45 45 42
10 6 11 17 18 19 22 22 25 28 28 32 35 38 39 38 37 37 37 38 37 37 39 39 39 40 41 41 41 44 45 47 49 51 51 50 50 51 51 52 51 50 47
12 12 12 14 19 25 25 28 28 30 32 35 38 39 36 36 37 37 37 37 36 37 39 39 41 41 41 40 42 43 46 48 49 51 52 52 51 51 49 49 48 50 54
16 22 31 36 36 33 28 29 31 32 37 41 42 39 39 39 37 37 38 38 37 37 37 38 40 40 41 41 40 41 43 46 48 52 53 52 51 51 50 50 50 49 48
Wind_Direction
155 159 159 154 143 138 144 142 154 136 117 71 47 35 302 267 262 254 253 252 259 267 267 257 264 270 273 277 281 288 295 300 299 315 323 308 295 301 301 296 299 301 303
142 150 157 154 150 150 162 164 164 169 141 116 98 49 321 308 311 303 306 280 268 263 267 262 255 273 278 280 284 294 298 301 300 305 308 307 303 305 301 298 301 304 294
133 130 149 153 154 152 150 180 177 181 164 134 121 113 105 352 341 305 276 270 263 252 266 276 278 281 287 292 291 288 288 283 288 293 299 300 301 294 293 298 302 310 286
167 154 149 159 169 171 173 182 186 175 159 133 118 109 103 92 71 34 344 291 258 260 272 275 275 275 277 280 289 295 297 295 292 291 286 290 293 295 291 293 296 300 293
222 149 154 142 193 205 194 200 200 199 189 170 157 154 152 125 84 56 45 47 42 320 296 281 284 289 290 295 305 305 302 299 299 296 291 287 286 291 292 285 274 291 293
246 208 192 194 215 223 220 204 197 203 209 214 198 195 203 202 221 301 338 21 241 263 287 287 290 298 297 288 286 290 292 292 291 289 290 291 289 287 286 287 285 281 276
257 240 232 248 228 224 218 234 223 211 214 224 238 227 238 274 293 300 298 293 277 278 286 296 291 289 289 290 286 285 286 286 284 281 278 282 283 280 278 280 286 283 277
214 211 216 232 237 239 226 219 236 227 236 240 247 248 256 254 280 285 275 275 282 281 282 281 284 286 286 288 290 288 285 284 285 278 273 275 281 278 279 282 284 286 285
204 222 224 228 226 231 231 230 232 225 289 283 261 257 241 237 233 267 274 276 275 280 281 283 287 291 289 289 293 295 295 285 278 263 265 267 272 276 275 276 280 281 283
15 336 233 236 246 265 230 220 226 223 268 255 244 246 249 234 238 260 268 284 293 306 316 311 298 292 298 300 304 302 297 294 284 260 255 254 263 267 270 274 276 279 275
8 5 350 229 232 255 210 209 218 225 224 275 256 246 249 236 222 250 268 280 274 294 308 308 304 303 307 310 318 327 320 329 335 213 225 232 250 262 272 276 276 273 274
13 26 16 327 257 239 211 166 176 187 219 332 333 264 244 194 220 256 266 267 270 269 280 292 295 303 310 312 302 325 328 319 292 229 225 251 279 281 286 282 276 280 283
39 38 52 68 290 235 174 189 198 221 203 179 181 147 183 227 243 252 259 270 270 272 278 278 278 284 295 302 304 303 320 315 275 280 311 312 308 302 289 286 286 284 285
82 57 49 57 83 156 218 207 204 221 213 207 210 212 231 241 253 263 264 268 270 275 277 275 273 275 284 287 296 300 301 317 300 245 268 273 288 294 288 293 286 259 276
169 73 55 59 62 63 92 225 232 230 226 228 234 237 240 246 255 261 263 265 268 273 270 269 276 274 278 279 277 281 292 298 295 274 268 285 295 298 297 301 285 264 270
207 158 76 55 54 53 44 41 272 243 247 245 248 249 256 265 265 269 271 271 274 274 274 274 278 278 277 272 272 272 281 284 287 284 283 285 291 300 309 310 307 270 262
216 211 160 60 27 26 35 52 14 307 270 265 265 267 270 272 273 273 271 272 275 276 276 280 281 278 278 271 267 270 273 272 272 276 279 282 288 295 307 315 317 279 261
209 210 206 219 350 339 316 316 311 292 283 269 285 294 293 287 283 282 285 285 285 285 284 283 281 279 276 272 272 271 271 270 271 271 270 273 283 292 301 313 321 293 274
211 209 215 225 247 261 265 265 275 287 278 269 273 292 298 285 282 284 286 286 286 285 283 281 282 280 276 275 273 273 272 265 265 270 273 273 277 281 289 296 305 288 272
207 212 223 238 249 259 261 263 271 279 278 276 279 283 286 286 286 285 284 284 283 282 283 283 280 277 276 275 274 276 276 272 268 269 270 273 276 273 276 279 280 287 285
214 213 223 242 255 263 270 284 293 290 284 286 291 288 285 283 280 280 280 280 281 280 278 277 277 277 276 276 275 275 274 275 274 273 271 270 271 273 271 271 274 277 274
213 214 229 255 263 272 287 294 288 284 289 290 288 288 288 288 286 284 282 280 281 281 281 280 279 276 275 274 274 273 273 273 273 272 272 271 267 265 269 268 269 269 270
204 212 231 248 266 277 289 288 284 289 292 293 296 298 301 300 298 297 294 288 285 283 281 282 281 281 279 277 275 274 274 273 272 272 270 268 267 265 262 263 264 264 265
178 291 309 312 307 298 296 283 284 285 292 301 306 306 303 298 295 295 295 295 294 291 289 287 284 283 282 279 276 274 273 272 272 272 270 268 266 265 264 261 257 259 261
315 305 309 292 304 309 297 288 290 297 301 303 304 305 299 297 296 295 295 294 292 292 290 289 287 286 282 280 278 276 273 272 270 269 268 268 267 266 264 263 261 257 256
308 307 307 305 287 275 278 284 285 294 300 303 305 305 305 304 300 297 294 292 292 291 289 289 289 288 288 287 283 280 276 273 271 269 269 267 266 266 265 262 260 260 258
Height
3230 3230 3230 3231 3232 3233 3234 3236 3237 3238 3238 3239 3239 3239 3240 3241 3241 3241 3242 3242 3242 3242 3242 3242 3242 3242 3241 3241 3240 3239 3238 3238 3237 3237 3237 3235 3234 3233 3232 3231 3230 3228 3227
3230 3230 3230 3230 3232 3233 3234 3235 3235 3236 3237 3238 3239 3240 3240 3240 3240 3241 3241 3241 3241 3242 3242 3241 3240 3240 3240 3240 3238 3238 3238 3237 3236 3236 3234 3234 3233 3231 3231 3230 3229 3227 3226
3229 3229 3230 3231 3231 3232 3233 3234 3235 3235 3236 3237 3238 3239 3239 3239 3239 3239 3239 3240 3240 3241 3240 3240 3240 3239 3239 3237 3236 3236 3236 3235 3234 3233 3233 3231 3230 3230 3229 3228 3227 3226 3224
3227 3227 3228 3230 3232 3233 3233 3233 3233 3234 3235 3236 3238 3239 3239 3239 3239 3237 3237 3238 3238 3239 3239 3239 3238 3237 3236 3234 3234 3233 3232 3232 3231 3230 3229 3227 3227 3226 3227 3226 3224 3223 3221
3227 3227 3228 3229 3231 3232 3232 3232 3233 3234 3235 3236 3237 3237 3237 3237 3238 3237 3236 3236 3237 3237 3237 3237 3236 3236 3234 3234 3233 3231 3230 3229 3228 3227 3226 3224 3223 3223 3222 3223 3222 3220 3218
3225 3226 3227 3227 3228 3229 3230 3231 3232 3234 3235 3236 3236 3236 3236 3236 3236 3236 3236 3236 3235 3235 3235 3234 3234 3233 3232 3231 3230 3228 3226 3225 3224 3224 3222 3221 3220 3219 3218 3217 3218 3217 3216
3221 3223 3224 3226 3226 3228 3229 3230 3231 3232 3233 3234 3235 3235 3235 3236 3237 3237 3236 3236 3234 3234 3232 3232 3231 3230 3229 3227 3226 3224 3222 3221 3219 3218 3216 3216 3215 3215 3213 3213 3213 3212 3212
3217 3219 3219 3220 3223 3225 3227 3227 3229 3230 3231 3232 3233 3233 3234 3234 3235 3236 3235 3234 3234 3232 3230 3229 3227 3225 3224 3222 3220 3219 3216 3213 3211 3211 3211 3211 3211 3210 3209 3209 3208 3207 3207
3216 3216 3215 3215 3216 3217 3221 3224 3225 3227 3229 3230 3230 3230 3230 3230 3231 3232 3233 3232 3230 3228 3227 3224 3223 3221 3219 3217 3215 3212 3208 3204 3202 3201 3202 3204 3206 3207 3206 3205 3204 3203 3203
3213 3212 3210 3210 3211 3212 3214 3217 3220 3221 3226 3225 3222 3224 3223 3223 3226 3228 3230 3228 3226 3225 3224 3221 3218 3217 3215 3213 3210 3207 3202 3193 3186 3187 3194 3198 3202 3203 3202 3201 3199 3199 3198
3210 3208 3206 3207 3208 3209 3210 3213 3216 3220 3222 3219 3216 3214 3214 3220 3222 3224 3225 3225 3224 3222 3221 3219 3217 3214 3212 3209 3207 3203 3197 3189 3181 3183 3189 3193 3195 3198 3199 3197 3197 3196 3194
3210 3208 3206 3205 3205 3207 3208 3211 3213 3215 3216 3214 3211 3207 3208 3213 3215 3220 3221 3221 3220 3219 3218 3216 3215 3212 3209 3206 3204 3201 3196 3192 3189 3188 3189 3187 3191 3195 3195 3195 3194 3192 3192
3209 3208 3207 3205 3205 3205 3207 3208 3210 3211 3212 3212 3212 3212 3213 3215 3216 3217 3217 3217 3216 3215 3214 3213 3211 3209 3206 3204 3201 3200 3196 3193 3190 3189 3189 3190 3190 3192 3192 3190 3190 3188 3187
3208 3207 3207 3206 3205 3205 3206 3206 3207 3208 3209 3211 3212 3213 3213 3213 3213 3213 3212 3212 3211 3210 3210 3209 3207 3205 3203 3201 3199 3197 3194 3192 3189 3189 3187 3187 3186 3187 3186 3184 3183 3182 3183
3206 3206 3206 3205 3205 3204 3204 3204 3206 3207 3208 3209 3210 3210 3211 3210 3210 3210 3208 3207 3206 3205 3204 3203 3202 3200 3199 3197 3195 3193 3191 3189 3188 3187 3186 3184 3183 3181 3181 3179 3179 3178 3177
3204 3204 3204 3203 3203 3203 3202 3202 3202 3204 3205 3205 3205 3206 3206 3206 3206 3204 3203 3201 3200 3199 3198 3197 3196 3195 3193 3191 3190 3188 3188 3186 3185 3185 3183 3182 3180 3179 3178 3175 3172 3170 3169
3201 3201 3201 3200 3199 3199 3199 3199 3200 3200 3200 3201 3202 3202 3201 3200 3199 3198 3197 3195 3193 3192 3191 3190 3188 3187 3187 3186 3184 3183 3182 3181 3180 3179 3178 3177 3175 3173 3172 3169 3164 3160 3162
3197 3198 3198 3197 3197 3196 3196 3196 3197 3198 3198 3197 3197 3195 3194 3193 3191 3190 3189 3188 3186 3185 3183 3183 3181 3181 3180 3179 3177 3176 3176 3175 3174 3173 3172 3171 3170 3168 3167 3165 3161 3159 3159
3193 3193 3194 3194 3195 3196 3196 3196 3196 3195 3194 3193 3193 3192 3191 3188 3186 3185 3182 3181 3179 3178 3177 3176 3175 3174 3173 3171 3170 3168 3167 3167 3167 3165 3165 3165 3164 3162 3162 3162 3160 3158 3156
3187 3188 3189 3191 3192 3192 3192 3192 3192 3192 3190 3189 3187 3185 3183 3181 3179 3177 3175 3174 3172 3170 3169 3168 3166 3166 3165 3163 3162 3159 3158 3158 3158 3157 3157 3156 3156 3156 3153 3154 3155 3155 3152
3181 3183 3185 3186 3187 3188 3188 3186 3185 3184 3183 3182 3180 3178 3176 3174 3172 3169 3166 3163 3162 3160 3158 3157 3155 3154 3154 3152 3151 3149 3148 3147 3146 3147 3147 3147 3147 3146 3145 3144 3146 3148 3147
3174 3178 3181 3182 3184 3183 3182 3180 3179 3177 3175 3174 3173 3171 3168 3164 3161 3158 3156 3153 3150 3146 3144 3142 3142 3141 3140 3139 3138 3136 3135 3134 3132 3134 3134 3134 3134 3135 3135 3134 3136 3138 3137
3170 3174 3175 3177 3178 3178 3177 3174 3173 3171 3168 3166 3164 3161 3158 3153 3149 3145 3143 3140 3138 3134 3133 3130 3128 3127 3127 3125 3124 3122 3119 3118 3116 3116 3118 3118 3118 3119 3122 3124 3125 3125 3126
3166 3168 3170 3170 3170 3170 3169 3169 3165 3164 3160 3158 3155 3150 3146 3143 3138 3134 3131 3128 3126 3122 3119 3118 3116 3114 3113 3113 3112 3109 3107 3104 3102 3100 3099 3101 3101 3103 3105 3108 3112 3113 3114
3159 3160 3161 3162 3161 3163 3163 3161 3160 3156 3152 3148 3146 3141 3136 3133 3128 3124 3120 3117 3115 3110 3108 3107 3103 3100 3099 3100 3097 3095 3092 3090 3088 3085 3083 3085 3086 3087 3089 3091 3094 3097 3100
3152 3151 3151 3152 3151 3153 3157 3154 3152 3147 3143 3138 3135 3130 3125 3122 3118 3114 3112 3109 3104 3101 3097 3094 3091 3088 3085 3085 3084 3081 3077 3075 3071 3068 3067 3069 3071 3071 3073 3075 3077 3080 3083